[[{"header":{"parameterUnit":"m.s-1","parameterCategory":1,"la1":30.2991,"la2":30.254,"lo1":-89.0895,"lo2":-89.0444,"dy":0.0017,"dx":0.0017,"nx":28,"ny":28,"refTime":"2025-12-18T09:00:00:Z","depth":0,"parameterNumber":2,"parameterNumberName":"U-component_of_WINDS"},"data":[0,0,0,0,0,0,0,0,0,0,0,0,0,0,0,0,0,0,0,0,0,0,0,0,0,0,0,0,0,0,0,0,0,0,0,0,0,0,0,0,0,0,0,0,0,0,0,0,0,0,0,0,0,0,0,0,0,0,-1.5758,-1.5759,0,-1.5881,-1.5882,-1.5884,-1.5911,-1.591,-1.591,-1.5909,-1.6036,-1.604,-1.6044,0,0,0,0,0,0,0,0,0,0,0,0,0,-1.5547,-1.5551,-1.5757,-1.5759,-1.5761,-1.588,-1.5882,-1.5884,-1.5912,-1.591,-1.5909,-1.5908,-1.6034,-1.6039,-1.6044,0,0,0,0,0,0,0,0,0,0,0,0,0,-1.5651,-1.5552,-1.5757,-1.5789,-1.5793,-1.588,-1.5882,-1.5884,-1.5912,-1.591,-1.5909,-1.5908,-1.6033,-1.6039,-1.6045,-1.611,0,0,-1.6064,-1.6067,0,0,0,0,0,0,0,0,-1.5645,-1.5659,-1.5783,-1.5787,-1.5791,-1.5879,-1.5855,-1.596,-1.5912,-1.5867,-1.5909,-1.5907,-1.5985,-1.5995,-1.6021,-1.6116,-1.6121,-1.6065,-1.6069,-1.6071,-1.6073,0,0,0,0,0,0,0,-1.5638,-1.5654,-1.5806,-1.5784,-1.579,-1.5797,-1.581,-1.5875,-1.5932,-1.587,-1.5873,-1.5887,-1.5987,-1.6015,-1.6024,-1.6123,-1.6065,-1.607,-1.6074,-1.6077,-1.6277,-1.6279,0,0,0,0,0,0,-1.5625,-1.5647,-1.5802,-1.581,-1.5714,-1.5802,-1.5817,-1.5852,-1.5931,-1.5942,-1.5888,-1.5888,-1.6005,-1.6017,-1.6029,-1.6109,-1.6071,-1.6077,-1.6081,-1.6276,-1.6277,-1.6279,0,0,0,0,0,0,-1.562,-1.5639,-1.5797,-1.5729,-1.575,-1.5807,-1.5847,-1.5856,-1.5883,-1.5944,-1.5954,-1.5906,-1.6004,-1.602,-1.6089,-1.6114,-1.608,-1.6086,-1.6274,-1.6276,-1.6278,-1.6271,0,0,0,0,0,0,-1.5614,-1.5637,-1.5662,-1.573,-1.5754,-1.5856,-1.5848,-1.5859,-1.5894,-1.5895,-1.5964,-1.5974,-1.6004,-1.608,-1.6096,-1.6122,-1.6091,-1.6272,-1.6275,-1.6278,-1.6269,-1.6272,-1.6275,0,0,0,0,0,-1.5607,-1.5655,-1.5663,-1.5681,-1.5786,-1.5857,-1.5871,-1.5905,-1.5896,-1.5921,-1.5961,-1.5972,-1.6109,-1.6087,-1.6105,-1.6133,-1.627,-1.6274,-1.6277,-1.6267,-1.6272,-1.6275,0,0,0,0,0,0,-1.5589,-1.5665,-1.5674,-1.5746,-1.5795,-1.5861,-1.5895,-1.5908,-1.5961,-1.5959,-1.6,-1.6015,-1.6082,-1.6115,-1.6089,-1.62,-1.6189,-1.6197,-1.6176,-1.618,-1.6183,-1.6174,-1.6096,0,0,0,0,0,-1.5593,-1.5644,-1.5708,-1.5765,-1.5789,-1.5838,-1.587,-1.5892,-1.5944,-1.5965,-1.6009,-1.606,-1.6114,-1.6149,-1.6203,-1.6274,-1.6289,-1.6303,-1.6306,-1.6309,-1.6314,-1.6354,-1.636,-1.6291,-1.6291,-1.6291,0,0,-1.5603,-1.565,-1.568,-1.5763,-1.5803,-1.5855,-1.5855,-1.591,-1.5949,-1.5974,-1.6041,-1.6076,-1.6135,-1.6205,-1.6239,-1.6235,-1.6337,-1.6313,-1.6314,-1.6319,-1.6358,-1.6364,-1.637,-1.6293,-1.6293,-1.6292,0,0,-1.5646,-1.5688,-1.574,-1.578,-1.5841,-1.5873,-1.5886,-1.5951,-1.5974,-1.6043,-1.6062,-1.611,-1.6203,-1.6244,-1.6277,-1.6337,-1.6349,-1.6353,-1.637,-1.6408,-1.6413,-1.6418,-1.6439,-1.6445,-1.6359,-1.6359,-1.6359,0,-1.565,-1.5729,-1.5765,-1.5819,-1.5854,-1.5879,-1.5931,-1.5969,-1.6045,-1.6069,-1.6064,-1.6181,-1.6223,-1.6303,-1.6317,-1.6344,-1.6359,-1.6345,-1.641,-1.6415,-1.642,-1.644,-1.6448,-1.6359,-1.6359,-1.6359,-1.6359,0,-1.573,-1.5785,-1.5819,-1.5891,-1.5931,-1.5984,-1.6027,-1.6063,-1.6082,-1.6115,-1.6184,-1.6236,-1.63,-1.6321,-1.634,-1.6404,-1.6399,-1.6401,-1.6391,-1.6426,-1.6445,-1.6453,-1.6359,-1.6359,-1.6359,-1.6359,0,0,-1.5765,-1.5856,-1.5868,-1.5901,-1.597,-1.6013,-1.6067,-1.613,-1.6159,-1.6211,-1.6257,-1.6336,-1.6338,-1.6376,-1.64,-1.6433,-1.6476,-1.6432,-1.6434,-1.6437,-1.6549,-1.6546,-1.6554,-1.6485,-1.6487,-1.6488,-1.6543,0,-1.5816,-1.5913,-1.5947,-1.6027,-1.6078,-1.6102,-1.6149,-1.6197,-1.6229,-1.6277,-1.6313,-1.6368,-1.6367,-1.639,-1.6424,-1.6463,-1.6499,-1.646,-1.6528,-1.653,-1.6511,-1.6564,-1.6561,-1.6611,-1.6551,-1.6553,-1.6554,0,-1.5888,-1.594,-1.6025,-1.6088,-1.6111,-1.6152,-1.6212,-1.6257,-1.6312,-1.6333,-1.6375,-1.6397,-1.6455,-1.6442,-1.6523,-1.6496,-1.6526,-1.6549,-1.6552,-1.6559,-1.6543,-1.6571,-1.6628,-1.6635,-1.6566,-1.6565,-1.6564,0,-1.5904,-1.5995,-1.6058,-1.6085,-1.616,-1.6189,-1.6221,-1.6275,-1.631,-1.6363,-1.6386,-1.6445,-1.6477,-1.6522,-1.6559,-1.6547,-1.6636,-1.6627,-1.6655,-1.6654,-1.6671,-1.6669,-1.6732,-1.6693,-1.6693,-1.6692,-1.6692,0,-1.5956,-1.6007,-1.6065,-1.6103,-1.6161,-1.62,-1.6256,-1.629,-1.6338,-1.6383,-1.6409,-1.6451,-1.6498,-1.6547,-1.6577,-1.6638,-1.6653,-1.6671,-1.6678,-1.6668,-1.6666,-1.6688,-1.6685,-1.6695,-1.6694,-1.6694,-1.6693,0,-1.5982,-1.6023,-1.6093,-1.6158,-1.6176,-1.6216,-1.6272,-1.631,-1.6344,-1.6401,-1.6417,-1.6469,-1.6528,-1.657,-1.6645,-1.6665,-1.6731,-1.6739,-1.6712,-1.6716,-1.6741,-1.6737,-1.6819,-1.6831,-1.6784,-1.6785,-1.6785,0,-1.6012,-1.6052,-1.6121,-1.6154,-1.6186,-1.6238,-1.6274,-1.6314,-1.635,-1.6416,-1.6446,-1.6506,-1.6556,-1.6649,-1.6694,-1.6752,-1.676,-1.6785,-1.6769,-1.6758,-1.6759,-1.6756,-1.676,-1.6787,-1.6787,-1.6787,-1.6788,0,-1.6061,-1.6079,-1.613,-1.6188,-1.623,-1.6278,-1.6326,-1.6351,-1.6399,-1.6439,-1.6499,-1.6538,-1.6615,-1.6674,-1.6736,-1.6771,-1.6787,-1.6792,-1.6802,-1.6791,-1.6774,-1.6783,-1.6717,-1.679,-1.679,-1.679,-1.6789,-1.6789,-1.609,-1.6125,-1.618,-1.6235,-1.6276,-1.632,-1.6359,-1.6397,-1.6447,-1.6513,-1.6534,-1.6596,-1.665,-1.6735,-1.6771,-1.682,-1.6819,-1.6832,-1.6836,-1.6838,-1.6837,-1.6767,-1.6832,-1.6832,-1.6832,-1.6832,-1.6832,0,-1.6138,-1.6175,-1.6225,-1.6291,-1.6335,-1.6347,-1.6401,-1.6436,-1.649,-1.6539,-1.6588,-1.6657,-1.6715,-1.6765,-1.6825,-1.6854,-1.6864,-1.6869,-1.6866,-1.6874,-1.6835,-1.6821,-1.686,-1.686,-1.686,-1.686,-1.686,-1.686,-1.6169,-1.623,-1.6255,-1.6337,-1.6373,-1.6433,-1.6463,-1.6504,-1.6543,-1.6618,-1.6666,-1.6698,-1.6748,-1.6812,-1.6865,-1.6879,-1.6899,-1.6902,-1.6917,-1.688,-1.6877,-1.6873,-1.686,-1.6907,-1.6907,-1.6952,-1.6952,-1.6952]},{"header":{"parameterUnit":"m.s-1","parameterCategory":1,"la1":30.2991,"la2":30.254,"lo1":-89.0895,"lo2":-89.0444,"dy":0.0017,"dx":0.0017,"nx":28,"ny":28,"refTime":"2025-12-18T09:00:00:Z","depth":0,"parameterNumber":3,"parameterNumberName":"V-component_of_WINDS"},"data":[0,0,0,0,0,0,0,0,0,0,0,0,0,0,0,0,0,0,0,0,0,0,0,0,0,0,0,0,0,0,0,0,0,0,0,0,0,0,0,0,0,0,0,0,0,0,0,0,0,0,0,0,0,0,0,0,0,0,1.6436,1.6436,0,1.6389,1.6388,1.6388,1.6369,1.6369,1.637,1.637,1.6315,1.6314,1.6312,0,0,0,0,0,0,0,0,0,0,0,0,0,1.6507,1.6506,1.6436,1.6436,1.6435,1.6389,1.6388,1.6388,1.6369,1.6369,1.637,1.637,1.6316,1.6314,1.6312,0,0,0,0,0,0,0,0,0,0,0,0,0,1.647,1.6506,1.6436,1.6421,1.6419,1.6389,1.6388,1.6387,1.6369,1.6369,1.637,1.637,1.6316,1.6314,1.6312,1.6293,0,0,1.6305,1.6304,0,0,0,0,0,0,0,0,1.6472,1.6467,1.6424,1.6422,1.6419,1.6385,1.6393,1.6356,1.6369,1.6388,1.637,1.637,1.6338,1.6334,1.6324,1.629,1.6288,1.6304,1.6303,1.6302,1.6301,0,0,0,0,0,0,0,1.6475,1.6469,1.6417,1.6423,1.642,1.6415,1.641,1.6386,1.6362,1.6386,1.6385,1.638,1.6337,1.6327,1.6323,1.6287,1.6304,1.6302,1.6301,1.63,1.6237,1.6237,0,0,0,0,0,0,1.648,1.6471,1.6419,1.6416,1.6447,1.6413,1.6407,1.6396,1.6362,1.6358,1.638,1.6379,1.6331,1.6326,1.6321,1.6298,1.6302,1.63,1.6298,1.6237,1.6237,1.6237,0,0,0,0,0,0,1.6482,1.6476,1.6421,1.6443,1.6436,1.6412,1.6399,1.6395,1.6385,1.6357,1.6353,1.6374,1.6331,1.6324,1.6301,1.6296,1.6299,1.6296,1.6238,1.6237,1.6237,1.6251,0,0,0,0,0,0,1.6484,1.6477,1.647,1.6443,1.6435,1.6403,1.6399,1.6394,1.6381,1.638,1.6351,1.6346,1.633,1.6305,1.6299,1.6292,1.6295,1.6238,1.6237,1.6237,1.6251,1.6251,1.6251,0,0,0,0,0,1.6487,1.6474,1.647,1.6463,1.6426,1.6402,1.6397,1.6381,1.6381,1.6374,1.6357,1.6347,1.6297,1.6302,1.6295,1.6288,1.6238,1.6238,1.6237,1.625,1.6251,1.6251,0,0,0,0,0,0,1.6498,1.647,1.6465,1.6443,1.6426,1.6399,1.6389,1.6382,1.6362,1.6361,1.6341,1.6334,1.6313,1.6298,1.6304,1.6269,1.6267,1.6265,1.628,1.628,1.628,1.6284,1.6293,0,0,0,0,0,1.6498,1.6483,1.6459,1.6442,1.6434,1.6413,1.6402,1.6392,1.6372,1.6363,1.6344,1.6324,1.6304,1.6291,1.6271,1.6249,1.6242,1.6241,1.6241,1.6241,1.624,1.6228,1.6227,1.6235,1.6235,1.6235,0,0,1.6498,1.6481,1.6472,1.6444,1.6429,1.6412,1.6407,1.6389,1.6376,1.636,1.6338,1.6323,1.6299,1.6277,1.6266,1.6264,1.6236,1.6241,1.6241,1.6239,1.6228,1.6227,1.6226,1.6235,1.6235,1.6235,0,0,1.6489,1.6475,1.646,1.6446,1.6425,1.6411,1.6408,1.6383,1.6374,1.6352,1.634,1.6324,1.6289,1.6274,1.6261,1.6249,1.624,1.6243,1.6244,1.6233,1.6233,1.6232,1.6229,1.6227,1.6242,1.6242,1.6242,0,1.6491,1.6467,1.6453,1.6437,1.6425,1.6413,1.6397,1.6384,1.6356,1.6348,1.6347,1.6305,1.6288,1.6262,1.626,1.625,1.6245,1.6246,1.6234,1.6233,1.6233,1.6229,1.6228,1.6242,1.6242,1.6242,1.6242,0,1.6471,1.6454,1.6445,1.6422,1.6409,1.6393,1.6376,1.6365,1.6356,1.6343,1.6321,1.63,1.6277,1.627,1.626,1.6244,1.6243,1.6238,1.6236,1.6233,1.6229,1.6228,1.6243,1.6243,1.6243,1.6242,0,0,1.6465,1.6437,1.6434,1.6424,1.64,1.6387,1.6371,1.6351,1.6342,1.6323,1.6309,1.6282,1.6278,1.6264,1.6252,1.6243,1.6237,1.6239,1.6238,1.624,1.6218,1.6222,1.6221,1.6231,1.623,1.623,1.6221,0,1.6454,1.6427,1.6415,1.6393,1.6378,1.6367,1.6354,1.6337,1.6325,1.631,1.6296,1.6278,1.6274,1.6265,1.6256,1.6239,1.6232,1.624,1.6217,1.6216,1.6223,1.6219,1.6223,1.6214,1.6219,1.6219,1.6218,0,1.6436,1.6421,1.6399,1.6379,1.6373,1.6361,1.6342,1.6328,1.631,1.6301,1.6287,1.6277,1.6259,1.6259,1.6234,1.624,1.623,1.6221,1.622,1.6217,1.6217,1.6216,1.6211,1.621,1.6216,1.6216,1.6216,0,1.6436,1.641,1.6393,1.6385,1.6362,1.6354,1.6343,1.6326,1.6315,1.6298,1.6291,1.6271,1.626,1.6245,1.623,1.6231,1.6207,1.6205,1.62,1.62,1.6194,1.6195,1.6189,1.6188,1.6188,1.6188,1.6188,0,1.6425,1.6411,1.6393,1.6383,1.6368,1.6355,1.634,1.6328,1.6313,1.63,1.6288,1.6276,1.6256,1.6241,1.6229,1.6211,1.6206,1.6199,1.6196,1.62,1.6201,1.6193,1.6193,1.6188,1.6188,1.6188,1.6188,0,1.6421,1.6409,1.639,1.6371,1.6366,1.6356,1.6338,1.6328,1.6317,1.63,1.6296,1.6277,1.6259,1.6243,1.6218,1.621,1.6192,1.6188,1.6199,1.6197,1.6193,1.6194,1.6181,1.6179,1.618,1.618,1.618,0,1.6415,1.6405,1.6385,1.6377,1.6368,1.6354,1.6344,1.633,1.632,1.63,1.6291,1.6274,1.6258,1.623,1.6214,1.6195,1.6191,1.6187,1.6187,1.6193,1.6191,1.6192,1.6191,1.6187,1.6187,1.6188,1.6188,0,1.6404,1.64,1.6386,1.6372,1.6361,1.6347,1.6334,1.6327,1.6311,1.63,1.6283,1.6272,1.6249,1.6231,1.6211,1.6199,1.6191,1.6188,1.6186,1.619,1.6197,1.6194,1.62,1.6188,1.6188,1.6188,1.6188,1.6188,1.6399,1.6391,1.6377,1.6363,1.6352,1.634,1.6331,1.6319,1.6305,1.6287,1.6279,1.6263,1.6246,1.6219,1.6207,1.6193,1.6191,1.6188,1.6187,1.6187,1.6188,1.62,1.6189,1.6189,1.6189,1.6189,1.6189,0,1.6389,1.6381,1.6368,1.6351,1.6341,1.6336,1.6322,1.6313,1.6299,1.6285,1.6271,1.6252,1.6236,1.6219,1.6202,1.6194,1.6189,1.6189,1.619,1.6187,1.619,1.6194,1.6193,1.6193,1.6193,1.6193,1.6193,1.6193,1.6383,1.6369,1.6363,1.6343,1.6334,1.6319,1.6311,1.6301,1.629,1.627,1.6257,1.6248,1.6233,1.6214,1.6199,1.6195,1.6189,1.619,1.6184,1.6187,1.6187,1.6187,1.619,1.6189,1.6189,1.6183,1.6182,1.6182]}]]